�������l�o���
Date,Time,MP-1(��Sv/h),MP-2(��Sv/h),MP-3(��Sv/h),MP-4(��Sv/h),MP-5(��Sv/h),MP-6(��Sv/h),MP-7(��Sv/h),MP-8(��Sv/h),����,����(m/s),���J
2017/06/09,00:00,1.006,1.605,1.073,1.911,1.312,0.536,0.983,0.905,�k�k��,2.3,��
2017/06/09,00:10,1.008,1.605,1.072,1.910,1.310,0.538,0.982,0.907,�k�k��,2.5,��
2017/06/09,00:20,1.006,1.602,1.072,1.908,1.313,0.538,0.983,0.906,�k,2.9,��
2017/06/09,00:30,1.004,1.603,1.071,1.907,1.310,0.538,0.982,0.906,�k,2.8,��
2017/06/09,00:40,1.007,1.606,1.071,1.909,1.312,0.538,0.981,0.905,�k,3.4,��
2017/06/09,00:50,1.003,1.602,1.071,1.909,1.313,0.537,0.983,0.906,�k,3.6,��
2017/06/09,01:00,1.003,1.604,1.072,1.909,1.311,0.536,0.981,0.905,�k,3.2,��
2017/06/09,01:10,1.003,1.603,1.072,1.908,1.314,0.535,0.983,0.906,�k,4.3,��
2017/06/09,01:20,1.004,1.600,1.071,1.909,1.312,0.536,0.981,0.905,�k,3.7,��
2017/06/09,01:30,1.003,1.603,1.072,1.907,1.310,0.536,0.982,0.903,�k,3.6,��
2017/06/09,01:40,1.004,1.605,1.069,1.909,1.311,0.535,0.982,0.906,�k,3.5,��
2017/06/09,01:50,1.005,1.602,1.070,1.908,1.308,0.535,0.982,0.905,�k�k��,3.3,��
2017/06/09,02:00,1.003,1.603,1.072,1.913,1.311,0.536,0.982,0.905,�k�k��,3.2,��
2017/06/09,02:10,1.002,1.602,1.070,1.907,1.309,0.535,0.980,0.906,�k,3.2,��
2017/06/09,02:20,1.001,1.600,1.071,1.909,1.310,0.536,0.983,0.905,�k,4.0,��
2017/06/09,02:30,1.003,1.605,1.070,1.906,1.313,0.537,0.982,0.905,�k,2.3,��
2017/06/09,02:40,1.001,1.600,1.068,1.906,1.309,0.535,0.980,0.907,�k�k��,1.9,��
2017/06/09,02:50,1.004,1.601,1.071,1.908,1.311,0.535,0.981,0.904,�k�k��,2.0,��
2017/06/09,03:00,1.003,1.603,1.070,1.911,1.311,0.537,0.982,0.905,�k�k��,2.6,��
2017/06/09,03:10,1.000,1.599,1.068,1.907,1.310,0.536,0.979,0.905,�k,3.2,��
2017/06/09,03:20,1.001,1.602,1.069,1.909,1.310,0.538,0.980,0.905,�k,1.5,��
2017/06/09,03:30,1.001,1.600,1.068,1.906,1.308,0.535,0.982,0.904,�k,2.0,��
2017/06/09,03:40,1.001,1.601,1.068,1.907,1.312,0.535,0.981,0.904,�k,2.9,��
2017/06/09,03:50,1.001,1.603,1.069,1.908,1.310,0.534,0.981,0.905,�k,3.3,��
2017/06/09,04:00,1.002,1.601,1.068,1.908,1.311,0.535,0.980,0.903,�k,2.9,��
2017/06/09,04:10,1.002,1.598,1.068,1.906,1.308,0.534,0.979,0.903,�k,2.0,��
2017/06/09,04:20,1.002,1.601,1.071,1.908,1.307,0.533,0.978,0.904,�k��,1.5,��
2017/06/09,04:30,1.003,1.602,1.069,1.908,1.310,0.534,0.979,0.903,�k�k��,1.7,��
2017/06/09,04:40,1.002,1.601,1.068,1.907,1.309,0.535,0.978,0.902,�k�k��,1.4,��
2017/06/09,04:50,1.002,1.603,1.068,1.907,1.310,0.534,0.981,0.904,�k�k��,1.7,��
2017/06/09,05:00,1.001,1.600,1.067,1.906,1.312,0.533,0.978,0.904,�k,1.2,��
2017/06/09,05:10,1.004,1.603,1.069,1.907,1.310,0.534,0.978,0.903,�k�k��,1.4,��
2017/06/09,05:20,1.004,1.599,1.070,1.908,1.308,0.533,0.978,0.904,�k�k��,1.2,��
2017/06/09,05:30,1.001,1.602,1.069,1.908,1.312,0.534,0.980,0.904,�k��,1.7,��
2017/06/09,05:40,1.003,1.601,1.070,1.903,1.311,0.536,0.980,0.903,�k�k��,2.8,��
2017/06/09,05:50,1.003,1.602,1.071,1.907,1.311,0.534,0.979,0.904,�k,2.2,��
2017/06/09,06:00,1.003,1.604,1.070,1.908,1.310,0.536,0.981,0.904,�k�k��,2.2,��
2017/06/09,06:10,1.003,1.604,1.069,1.909,1.311,0.536,0.979,0.904,�k�k��,2.5,��
2017/06/09,06:20,1.002,1.603,1.070,1.908,1.311,0.535,0.981,0.902,�k,1.7,��
2017/06/09,06:30,1.004,1.602,1.069,1.909,1.311,0.533,0.980,0.904,�k,1.7,��
2017/06/09,06:40,1.005,1.603,1.070,1.907,1.311,0.536,0.980,0.905,�k,1.7,��
2017/06/09,06:50,1.004,1.604,1.070,1.909,1.311,0.534,0.982,0.904,�k��,1.1,��
2017/06/09,07:00,1.000,1.601,1.073,1.909,1.309,0.534,0.980,0.906,���k��,1.1,��
2017/06/09,07:10,1.001,1.604,1.071,1.908,1.309,0.533,0.981,0.907,�k�k��,0.8,��
2017/06/09,07:20,1.003,1.604,1.071,1.911,1.310,0.533,0.981,0.907,�k�k��,1.4,��
2017/06/09,07:30,1.002,1.601,1.072,1.911,1.310,0.533,0.979,0.904,���k��,0.9,��
2017/06/09,07:40,1.002,1.600,1.074,1.911,1.313,0.533,0.980,0.904,�k,1.2,��
2017/06/09,07:50,1.006,1.605,1.073,1.911,1.311,0.533,0.980,0.903,�k��,0.8,��
2017/06/09,08:00,1.005,1.603,1.072,1.909,1.313,0.534,0.979,0.903,���쓌,1.2,��
2017/06/09,08:10,1.003,1.603,1.075,1.912,1.311,0.534,0.977,0.903,��,1.1,��
2017/06/09,08:20,1.004,1.606,1.073,1.913,1.313,0.532,0.978,0.903,���쓌,1.4,��
2017/06/09,08:30,1.004,1.602,1.069,1.910,1.313,0.533,0.981,0.902,���쓌,2.0,��
2017/06/09,08:40,1.005,1.604,1.070,1.913,1.314,0.534,0.980,0.905,�쓌,1.5,��
2017/06/09,08:50,1.005,1.607,1.071,1.917,1.314,0.533,0.981,0.905,�쓌,1.2,��
2017/06/09,09:00,1.006,1.608,1.066,1.915,1.314,0.536,0.980,0.905,���쓌,1.7,��
2017/06/09,09:10,1.006,1.609,1.065,1.916,1.312,0.535,0.979,0.904,��,2.6,��
2017/06/09,09:20,1.007,1.607,1.067,1.916,1.315,0.534,0.978,0.903,��,2.6,��
2017/06/09,09:30,1.008,1.607,1.067,1.917,1.314,0.535,0.980,0.905,���쓌,3.6,��
2017/06/09,09:40,1.011,1.608,1.067,1.916,1.317,0.535,0.980,0.903,���쓌,4.0,��
2017/06/09,09:50,1.008,1.610,1.069,1.915,1.317,0.536,0.978,0.902,���쓌,3.5,��
2017/06/09,10:00,1.009,1.609,1.068,1.914,1.318,0.535,0.979,0.904,���쓌,3.3,��
2017/06/09,10:10,1.008,1.611,1.063,1.917,1.318,0.534,0.980,0.904,���쓌,3.7,��
2017/06/09,10:20,1.008,1.612,1.062,1.920,1.321,0.536,0.979,0.903,�쓌,3.9,��
2017/06/09,10:30,1.011,1.613,1.063,1.918,1.317,0.535,0.979,0.902,�쓌,5.0,��
2017/06/09,10:40,1.011,1.613,1.066,1.919,1.320,0.537,0.981,0.905,�쓌,4.5,��
2017/06/09,10:50,1.012,1.615,1.064,1.917,1.318,0.536,0.982,0.902,�쓌,5.9,��
2017/06/09,11:00,1.013,1.616,1.063,1.921,1.321,0.536,0.981,0.905,�쓌,5.9,��
2017/06/09,11:10,1.010,1.615,1.066,1.918,1.323,0.536,0.982,0.903,�쓌,6.0,��
2017/06/09,11:20,1.011,1.615,1.070,1.913,1.323,0.537,0.981,0.904,�쓌,6.1,��
2017/06/09,11:30,1.011,1.615,1.068,1.915,1.325,0.537,0.981,0.905,�쓌,5.9,��
2017/06/09,11:40,1.013,1.617,1.070,1.916,1.323,0.537,0.982,0.905,�쓌,6.1,��
2017/06/09,11:50,1.014,1.618,1.072,1.918,1.322,0.537,0.980,0.904,��쓌,6.3,��
2017/06/09,12:00,1.015,1.620,1.072,1.917,1.323,0.537,0.981,0.905,�쓌,6.4,��
2017/06/09,12:10,1.015,1.623,1.073,1.916,1.324,0.538,0.983,0.905,��쓌,5.7,��
2017/06/09,12:20,1.014,1.621,1.075,1.919,1.327,0.537,0.983,0.905,�쓌,6.5,��
2017/06/09,12:30,1.017,1.624,1.073,1.917,1.326,0.540,0.981,0.905,�쓌,7.5,��
2017/06/09,12:40,1.014,1.621,1.073,1.919,1.327,0.538,0.982,0.906,�쓌,8.0,��
2017/06/09,12:50,1.015,1.623,1.075,1.916,1.329,0.538,0.983,0.905,��쓌,7.6,��
2017/06/09,13:00,1.015,1.623,1.074,1.923,1.330,0.540,0.981,0.906,��쓌,7.3,��
2017/06/09,13:10,1.017,1.625,1.076,1.916,1.330,0.538,0.985,0.905,��쓌,7.2,��
2017/06/09,13:20,1.015,1.628,1.077,1.921,1.329,0.539,0.986,0.908,��쓌,7.3,��
2017/06/09,13:30,1.016,1.625,1.079,1.921,1.331,0.541,0.984,0.905,��,6.7,��
2017/06/09,13:40,1.016,1.626,1.077,1.922,1.332,0.540,0.983,0.906,��쓌,6.3,��
2017/06/09,13:50,1.018,1.625,1.080,1.922,1.334,0.542,0.983,0.905,��,8.1,��
2017/06/09,14:00,1.016,1.622,1.079,1.921,1.331,0.541,0.984,0.905,��쓌,8.0,��
2017/06/09,14:10,1.017,1.627,1.079,1.921,1.333,0.539,0.985,0.906,��,7.8,��
2017/06/09,14:20,1.017,1.626,1.079,1.924,1.330,0.539,0.982,0.908,-,CALM,��
2017/06/09,14:30,1.016,1.628,1.080,1.923,1.334,0.541,0.984,0.906,-,CALM,��
2017/06/09,14:40,1.018,1.624,1.081,1.927,1.332,0.541,0.985,0.906,��쓌,8.0,��
2017/06/09,14:50,1.019,1.628,1.083,1.922,1.335,0.540,0.985,0.906,��쓌,8.9,��
2017/06/09,15:00,1.020,1.628,1.082,1.925,1.334,0.539,0.983,0.908,��쓌,8.2,��
2017/06/09,15:10,1.019,1.628,1.083,1.927,1.335,0.539,0.983,0.907,��쓌,9.0,��
2017/06/09,15:20,1.018,1.628,1.082,1.927,1.335,0.543,0.985,0.907,��쓌,8.8,��
2017/06/09,15:30,1.019,1.629,1.085,1.927,1.333,0.542,0.984,0.907,��쓌,6.5,��
2017/06/09,15:40,1.017,1.629,1.083,1.925,1.334,0.540,0.985,0.906,��쓌,8.9,��
2017/06/09,15:50,1.019,1.629,1.083,1.926,1.333,0.540,0.985,0.906,��쓌,8.7,��
2017/06/09,16:00,1.021,1.629,1.083,1.923,1.336,0.539,0.985,0.907,��쓌,8.0,��
2017/06/09,16:10,1.019,1.631,1.085,1.926,1.334,0.541,0.984,0.907,��쓌,9.6,��
2017/06/09,16:20,1.021,1.630,1.082,1.929,1.333,0.540,0.984,0.907,��쓌,8.8,��
2017/06/09,16:30,1.020,1.627,1.076,1.926,1.334,0.541,0.982,0.908,��,8.3,��
2017/06/09,16:40,1.019,1.632,1.077,1.930,1.336,0.542,0.984,0.909,��쓌,8.7,��
2017/06/09,16:50,1.020,1.631,1.077,1.927,1.335,0.540,0.983,0.906,��쓌,9.9,��
2017/06/09,17:00,1.019,1.629,1.085,1.930,1.334,0.539,0.985,0.906,��쓌,8.9,��
2017/06/09,17:10,1.021,1.629,1.084,1.930,1.334,0.540,0.983,0.905,��쓌,8.7,��
2017/06/09,17:20,1.019,1.633,1.088,1.925,1.336,0.539,0.983,0.909,��,7.4,��
2017/06/09,17:30,1.020,1.631,1.084,1.929,1.332,0.540,0.983,0.905,��,6.2,��
2017/06/09,17:40,1.019,1.631,1.084,1.928,1.336,0.541,0.984,0.906,��쓌,5.8,��
2017/06/09,17:50,1.019,1.633,1.088,1.927,1.336,0.539,0.985,0.908,��,7.7,��
2017/06/09,18:00,1.019,1.631,1.088,1.927,1.335,0.540,0.984,0.908,��,7.4,��
2017/06/09,18:10,1.020,1.630,1.089,1.928,1.334,0.540,0.983,0.907,��,6.0,��
2017/06/09,18:20,1.020,1.634,1.089,1.929,1.332,0.540,0.985,0.910,��쓌,7.7,��
2017/06/09,18:30,1.018,1.637,1.089,1.928,1.335,0.541,0.984,0.911,��,7.4,��
2017/06/09,18:40,1.019,1.635,1.088,1.927,1.335,0.540,0.984,0.910,��,6.3,��
2017/06/09,18:50,1.019,1.636,1.091,1.931,1.337,0.542,0.985,0.909,��쓌,6.7,��
2017/06/09,19:00,1.021,1.634,1.089,1.928,1.337,0.540,0.985,0.910,��,7.8,��
2017/06/09,19:10,1.021,1.634,1.089,1.931,1.335,0.540,0.986,0.909,��쓌,7.7,��
2017/06/09,19:20,1.019,1.635,1.089,1.933,1.334,0.540,0.987,0.910,��,6.9,��
2017/06/09,19:30,1.019,1.635,1.087,1.931,1.336,0.543,0.986,0.910,��,6.4,��
2017/06/09,19:40,1.020,1.634,1.087,1.932,1.338,0.541,0.988,0.911,��,7.4,��
2017/06/09,19:50,1.022,1.634,1.090,1.933,1.339,0.541,0.989,0.910,��,8.0,��
2017/06/09,20:00,1.023,1.634,1.088,1.931,1.336,0.543,0.988,0.909,��쓌,8.2,��
2017/06/09,20:10,1.021,1.634,1.089,1.930,1.337,0.542,0.988,0.908,��,7.9,��
2017/06/09,20:20,1.020,1.634,1.087,1.930,1.338,0.540,0.986,0.910,��쓌,6.6,��
2017/06/09,20:30,1.020,1.638,1.090,1.930,1.339,0.542,0.988,0.910,��,5.4,��
2017/06/09,20:40,1.022,1.634,1.090,1.933,1.336,0.540,0.988,0.911,��,6.0,��
2017/06/09,20:50,1.023,1.636,1.089,1.931,1.336,0.541,0.986,0.910,��,4.4,��
2017/06/09,21:00,1.021,1.634,1.088,1.933,1.336,0.542,0.986,0.908,��,5.0,��
2017/06/09,21:10,1.023,1.632,1.088,1.931,1.335,0.541,0.985,0.909,��,4.4,��
2017/06/09,21:20,1.021,1.631,1.089,1.934,1.338,0.542,0.986,0.910,��,4.3,��
2017/06/09,21:30,1.022,1.632,1.091,1.931,1.337,0.541,0.988,0.909,��,4.4,��
2017/06/09,21:40,1.023,1.632,1.091,1.934,1.336,0.541,0.988,0.909,��,5.8,��
2017/06/09,21:50,1.023,1.635,1.088,1.932,1.337,0.541,0.987,0.909,��,5.8,��
2017/06/09,22:00,1.023,1.634,1.088,1.929,1.339,0.541,0.988,0.910,��,5.4,��
2017/06/09,22:10,1.024,1.633,1.088,1.929,1.336,0.543,0.988,0.909,��,4.4,��
2017/06/09,22:20,1.021,1.635,1.090,1.930,1.338,0.543,0.987,0.909,��,5.8,��
2017/06/09,22:30,1.021,1.634,1.089,1.933,1.338,0.542,0.985,0.910,��,3.4,�L
2017/06/09,22:40,1.019,1.632,1.090,1.930,1.339,0.542,0.988,0.909,��쓌,4.9,��
2017/06/09,22:50,1.020,1.634,1.089,1.931,1.336,0.544,0.984,0.911,�쓌,3.9,��
2017/06/09,23:00,1.019,1.633,1.086,1.930,1.333,0.542,0.988,0.910,��쐼,2.5,��
2017/06/09,23:10,1.022,1.633,1.090,1.932,1.336,0.542,0.986,0.908,��,2.5,��
2017/06/09,23:20,1.022,1.634,1.090,1.930,1.335,0.543,0.986,0.911,�쓌,0.6,��
2017/06/09,23:30,1.022,1.635,1.089,1.929,1.336,0.544,0.986,0.909,��쓌,2.5,��
2017/06/09,23:40,1.023,1.634,1.089,1.930,1.338,0.543,0.986,0.911,�쐼,2.6,��
2017/06/09,23:50,1.023,1.633,1.088,1.930,1.335,0.543,0.986,0.910,���쐼,3.2,��
